Location: Launois
(49.6535°N, 4.5395°E)
Time: 09:24:17
(UTC+00:00)

CZ-2D R/B - Pass Details

Date: 14 August 2024
Orbit: 791 x 842 km, 98.8° (Epoch: 16 September)

Event Time Altitude Azimuth Distance (km) Brightness Sun altitude
Rises 00:07:39 0° 32° (NNE) 3,339 6.3 -25.9°
Reaches altitude 10° 00:11:51 10° 65° (ENE) 2,414 4.9 -25.8°
Maximum altitude 00:13:40 12° 85° (E) 2,301 4.6 -25.8°
Drops below altitude 10° 00:15:29 10° 105° (ESE) 2,420 4.5 -25.8°
Enters shadow 00:15:44 10° 108° (ESE) 2,453 4.5 -25.8°
